Location: Recife
(8.0585°S, 34.8848°W)
Time: 09:36:21
(UTC-03:00)

Courier 1B Rocket - Pass Details

Date: 21 April 2026
Orbit: 920 x 1201 km, 28.2° (Epoch: 13 May)

Event Time Altitude Azimuth Distance (km) Brightness Sun altitude
Rises 13:49:29 0° 264° (W) 4,023 8.7 47.4°
Reaches altitude 10° 13:52:47 10° 276° (W) 3,089 8.5 46.6°
Maximum altitude 13:59:00 27° 330° (NNW) 2,130 7.9 45.3°
Drops below altitude 10° 14:05:18 10° 24° (NNE) 3,117 7.8 43.9°
Sets 14:08:41 0° 36° (NE) 4,067 8.2 43.1°
